Wind_Speed
25 26 26 26 27 27 25 24 23 23 23 23 23 24 24 23 23 22 19 19 19 18 18 18 18 17 17 16 16 16 15 14 14 13 13 12 11 10 9 9 9 9 10 10 10 9 9 8 8
26 26 27 27 28 27 25 25 24 24 25 25 25 25 25 24 23 22 21 20 20 20 20 19 19 19 19 19 18 18 17 16 16 15 15 14 13 12 11 10 10 10 11 11 11 11 10 10 9
27 27 28 28 28 26 26 25 25 26 26 26 26 26 26 24 23 23 22 22 22 22 21 21 21 21 21 20 20 20 19 19 18 17 17 16 15 14 13 12 12 12 12 12 12 12 12 11 11
28 28 29 29 28 27 27 26 27 28 27 27 28 28 26 25 24 24 24 23 24 23 23 23 23 22 22 22 22 22 21 21 20 19 19 18 17 16 16 15 14 14 14 14 14 13 13 12 12
28 29 29 29 27 27 27 27 28 28 28 28 29 28 27 26 26 26 25 25 25 25 25 25 24 24 23 23 23 23 23 23 22 22 21 20 20 19 18 17 16 15 15 15 15 14 14 14 13
29 30 30 28 28 28 28 28 28 29 29 30 30 29 28 27 27 27 27 27 27 27 27 27 26 25 25 25 24 24 24 24 24 23 23 22 22 21 20 19 18 17 16 16 16 15 15 15 15
30 30 30 29 28 28 28 29 29 29 29 30 30 30 29 29 28 28 28 28 28 28 28 28 28 28 27 26 26 25 25 25 25 25 24 24 23 23 22 21 20 19 18 17 17 17 17 17 16
31 31 30 29 29 28 29 29 30 30 29 30 30 30 29 29 29 29 29 29 29 30 30 30 30 29 29 28 27 27 27 27 27 26 26 25 25 24 24 23 22 21 21 20 19 18 19 19 18
32 32 30 29 29 29 29 30 30 30 30 30 30 30 30 30 29 29 29 29 29 30 30 30 30 30 30 29 28 28 28 28 28 27 27 26 26 25 25 24 24 23 23 22 21 20 20 21 20
34 32 30 30 31 30 30 31 31 31 31 31 30 30 30 30 30 29 28 28 28 28 29 30 30 30 30 30 30 29 29 29 29 28 28 28 27 26 26 25 25 25 24 23 23 22 22 22 22
35 33 32 32 32 32 32 32 33 33 32 31 31 31 31 30 30 30 30 29 29 29 29 29 30 30 30 30 30 30 30 30 29 29 29 29 28 28 27 27 26 26 25 25 24 24 23 23 23
36 35 34 34 34 34 34 34 34 34 32 32 32 32 31 31 31 30 30 30 29 29 29 29 29 30 30 31 31 31 31 31 30 30 30 30 29 28 28 28 28 28 28 27 26 26 25 24 25
38 37 36 36 36 36 36 36 35 34 33 34 33 33 32 32 31 31 31 31 30 29 29 29 30 30 30 31 31 31 31 31 31 31 31 30 30 29 29 28 29 29 29 29 29 28 27 27 27
40 39 38 38 37 37 37 37 37 34 35 35 35 34 34 33 32 32 32 31 31 30 29 30 30 30 30 31 32 32 32 32 32 32 32 31 31 31 31 30 30 29 29 29 28 28 28 28 28
42 42 41 39 39 39 39 39 36 34 36 36 35 35 35 34 34 33 33 33 32 31 30 30 31 31 31 31 31 32 32 33 33 33 33 32 32 32 32 31 31 30 30 30 29 29 29 29 29
44 44 44 41 40 40 42 40 37 37 38 37 36 36 36 35 35 35 34 34 33 33 31 31 32 32 32 32 32 32 32 33 33 33 33 33 33 33 33 33 33 32 31 31 31 30 31 31 31
46 46 45 43 42 43 43 41 38 39 39 39 37 37 37 37 36 36 35 35 35 34 33 32 32 33 34 34 34 33 33 33 33 34 34 34 34 34 34 34 34 34 33 32 33 32 32 32 32
47 47 46 45 44 45 45 44 41 41 41 40 39 39 38 38 38 37 37 36 36 35 34 34 33 34 34 35 35 34 34 34 34 34 34 34 34 35 35 35 35 35 35 34 34 33 33 34 33
47 48 48 47 47 47 47 46 44 43 43 42 41 41 40 39 39 39 39 38 37 37 36 35 34 34 34 34 34 34 34 35 35 35 35 35 35 36 36 36 36 36 36 36 35 35 35 35 35
48 49 49 49 49 49 49 49 47 45 44 44 43 42 42 41 41 40 40 39 39 38 37 36 36 35 35 35 35 36 36 36 36 36 36 36 36 37 37 37 37 37 37 37 37 36 36 36 37
48 49 49 49 50 50 51 51 50 47 46 45 44 43 43 42 41 41 41 40 39 39 38 37 36 36 36 37 37 37 37 37 36 36 37 37 38 38 38 39 39 39 39 39 39 39 38 38 38
48 47 49 49 50 50 51 52 51 49 48 48 46 44 43 43 42 42 42 41 40 39 39 39 38 37 36 37 38 38 37 37 36 37 38 39 39 39 39 40 40 40 39 39 40 40 40 40 40
46 46 47 49 50 51 51 52 51 50 49 48 47 46 45 44 43 43 42 42 41 41 41 40 38 38 38 38 39 39 39 38 38 38 39 39 40 40 39 39 40 40 40 39 40 40 40 40 40
44 45 46 47 48 51 51 52 52 49 47 47 47 47 46 46 45 44 43 43 42 42 42 41 39 38 38 39 40 40 39 39 39 39 39 39 39 39 39 39 40 40 40 40 40 40 40 40 40
43 44 45 46 48 49 48 51 51 48 47 46 46 46 47 47 47 46 44 44 43 43 43 42 40 40 39 39 39 40 40 40 40 39 39 39 39 39 39 39 40 40 41 40 41 41 41 41 41
40 42 43 45 47 46 46 49 49 47 47 47 47 46 46 46 47 47 46 44 44 44 44 43 42 41 40 40 40 40 41 41 41 40 40 40 40 40 40 40 40 40 41 42 42 42 42 42 42
36 38 39 42 45 44 45 46 47 47 46 47 47 46 45 46 46 46 46 45 45 45 45 46 44 42 42 42 41 41 42 42 41 41 41 40 40 41 41 40 41 41 42 42 43 43 43 43 43
33 35 36 38 40 43 43 43 43 45 45 44 44 45 45 45 46 46 46 46 46 45 45 45 46 44 43 43 42 42 42 42 42 42 42 42 41 42 42 42 42 42 42 43 43 43 43 44 44
29 33 36 37 37 38 40 42 42 41 43 43 43 42 43 44 45 46 46 46 46 46 46 45 45 45 44 44 43 42 43 44 44 44 43 43 42 43 43 43 43 43 43 43 43 43 43 44 44
28 30 33 35 36 38 39 40 38 39 40 42 43 43 42 43 44 45 45 45 45 46 46 46 46 45 45 45 44 44 43 44 44 44 43 43 43 43 43 44 44 44 44 44 44 44 44 44 44
Wind_Direction
246 246 245 245 245 245 245 244 242 241 241 240 240 240 241 242 243 244 242 240 238 237 236 236 235 235 234 234 233 232 231 231 231 231 229 228 227 226 225 226 227 229 228 226 223 221 221 218 215
247 246 246 246 247 247 247 245 244 242 240 239 239 239 240 241 242 243 242 240 238 237 237 237 236 236 235 235 235 234 234 233 233 233 233 233 233 232 231 230 233 234 231 229 229 227 227 224 222
247 247 247 247 248 248 247 246 244 243 241 240 239 240 240 241 240 241 241 239 237 237 237 237 237 237 237 236 236 236 235 235 235 235 235 235 236 237 236 236 238 238 236 234 233 232 232 230 228
249 248 248 248 249 248 248 246 245 243 242 241 241 241 240 240 240 240 240 239 238 238 238 237 238 238 238 238 237 237 237 236 236 235 236 237 238 239 239 239 241 242 239 238 238 236 233 232 232
249 249 249 249 249 248 247 246 245 244 242 241 241 241 241 241 240 240 239 239 239 239 239 238 239 239 240 240 240 240 239 238 237 237 237 237 238 240 241 242 243 244 242 239 239 239 235 234 237
250 249 249 249 248 247 247 245 245 244 242 241 241 241 240 241 241 241 241 241 240 239 240 240 239 240 240 241 241 241 240 239 238 238 238 238 239 240 242 243 244 244 243 241 240 240 239 237 238
251 250 250 249 248 247 247 245 245 245 243 242 241 241 240 240 241 242 243 243 242 241 241 241 241 240 241 241 241 241 241 240 239 239 239 239 240 241 242 243 243 243 242 242 243 243 241 240 241
251 251 250 249 248 247 246 245 244 244 244 243 242 241 240 240 241 242 243 244 244 243 242 242 242 241 241 241 241 241 241 240 239 239 239 240 241 242 242 242 243 242 243 244 244 246 243 241 242
250 250 250 250 249 247 246 245 244 244 243 243 243 242 241 240 240 241 243 244 244 244 243 243 242 241 241 240 240 241 240 240 240 240 240 240 241 242 243 242 243 243 244 245 246 247 246 244 245
250 250 251 250 248 247 245 245 244 243 243 244 244 243 242 241 240 240 241 243 243 243 243 242 242 241 240 240 240 240 240 239 239 240 241 241 242 242 243 243 244 244 244 245 246 247 247 247 246
252 251 250 249 249 247 245 245 245 244 243 243 244 243 242 240 239 240 241 242 243 242 241 241 241 240 239 240 240 240 239 239 239 240 241 241 242 243 243 244 244 244 245 245 246 247 248 248 248
252 250 250 249 249 248 246 245 245 245 244 243 243 242 241 240 238 239 241 242 243 242 241 240 240 240 239 239 240 240 240 240 240 239 240 241 242 243 243 244 245 245 246 246 247 248 248 249 249
252 251 250 248 247 247 246 245 245 245 244 243 243 242 241 240 239 239 239 240 241 241 240 240 240 240 240 240 239 239 240 240 240 241 241 241 242 244 244 245 246 247 248 248 247 248 249 250 250
252 251 249 248 247 247 246 245 244 243 244 243 243 243 241 240 240 240 239 240 241 240 240 239 239 240 241 241 241 241 240 240 240 241 241 242 243 243 244 246 247 247 247 248 248 247 249 250 251
251 249 248 246 246 246 246 244 244 243 243 243 242 242 241 240 240 240 240 239 240 240 240 241 240 241 242 242 242 243 242 242 242 241 241 242 243 244 245 246 247 248 248 248 249 249 249 250 251
250 248 247 245 246 246 246 245 243 242 243 242 241 241 241 239 240 240 240 239 239 240 240 241 241 241 242 243 243 243 243 243 242 241 241 242 243 244 245 246 246 248 249 249 250 250 251 251 252
249 248 247 245 245 245 245 245 242 242 242 241 240 240 240 239 239 240 240 240 240 240 241 242 242 243 243 243 244 243 243 243 242 241 241 242 243 244 245 246 247 248 249 250 251 252 252 253 254
251 250 248 246 244 245 245 244 242 241 241 241 240 240 240 239 239 239 240 241 241 240 241 241 242 244 244 244 244 243 244 243 242 242 241 243 244 244 246 247 247 248 249 250 252 252 254 255 254
251 249 248 247 245 244 244 244 242 241 240 241 240 240 240 239 239 239 239 240 241 241 242 242 243 245 245 245 244 243 242 241 241 242 241 243 244 245 246 247 248 248 249 250 251 252 254 256 256
248 248 247 247 245 245 244 243 243 242 241 241 240 240 240 240 239 239 240 240 241 242 243 244 244 244 245 244 243 243 242 242 242 241 242 244 245 246 247 247 248 248 249 250 251 252 254 256 258
246 247 247 247 246 246 245 243 242 241 241 240 240 240 240 240 239 240 240 240 240 241 243 243 244 245 244 243 243 243 243 243 243 243 244 245 247 248 248 248 248 249 250 250 251 252 254 255 258
246 246 247 246 246 245 245 245 241 241 241 240 240 240 239 239 239 239 240 240 240 240 241 242 244 244 243 242 242 242 243 244 244 245 246 247 248 249 250 249 249 250 251 251 252 253 254 257 258
246 245 246 246 245 245 244 246 242 241 241 240 240 240 239 239 239 239 239 239 239 239 240 241 242 243 243 243 242 243 245 245 244 246 247 248 249 249 250 250 250 251 252 252 253 254 256 258 259
246 245 245 245 245 246 244 246 245 243 241 241 240 239 239 239 239 239 238 238 238 238 239 240 241 242 243 243 243 244 245 245 245 245 246 248 249 249 250 251 251 251 252 252 253 254 255 257 259
243 243 244 244 244 246 245 246 246 243 242 241 240 239 239 238 238 238 238 238 238 238 239 240 241 242 243 243 243 244 245 245 245 246 247 248 249 249 250 250 251 251 251 252 253 255 256 258 260
242 241 242 243 244 246 244 244 243 243 242 241 240 239 239 239 239 238 238 238 239 239 239 239 240 241 242 243 243 244 244 245 246 246 247 248 248 248 248 251 252 253 253 253 254 256 257 258 261
242 240 240 243 243 245 244 244 242 241 241 241 240 239 239 238 238 238 238 238 238 239 239 239 240 241 242 243 243 243 244 245 245 246 247 248 248 247 249 251 253 253 254 255 256 256 257 259 261
241 239 237 238 241 242 243 243 242 241 241 241 240 241 240 238 238 238 238 239 238 239 239 239 240 241 242 243 243 244 244 245 246 246 246 248 248 248 249 250 253 254 255 255 257 257 258 259 261
240 237 236 236 238 240 242 241 241 241 241 240 240 239 239 238 237 237 238 238 239 238 239 240 241 241 241 242 243 244 245 245 246 247 248 249 249 250 251 251 253 255 255 256 257 257 259 260 261
241 238 236 236 237 238 239 240 238 240 241 241 240 239 239 238 237 236 236 236 238 239 240 240 240 241 241 241 241 243 244 245 246 248 248 249 250 252 253 253 253 255 256 256 257 258 259 259 261
Height
5812 5813 5814 5816 5817 5818 5820 5822 5824 5825 5826 5827 5828 5829 5831 5833 5835 5839 5840 5840 5841 5843 5844 5845 5847 5848 5850 5851 5852 5854 5855 5857 5858 5859 5861 5862 5863 5864 5865 5865 5866 5867 5867 5868 5869 5870 5871 5871 5872
5807 5808 5810 5811 5811 5813 5816 5817 5819 5820 5821 5822 5823 5824 5826 5828 5830 5832 5834 5835 5837 5839 5840 5842 5844 5845 5846 5848 5849 5851 5853 5854 5856 5857 5859 5860 5861 5862 5863 5864 5865 5865 5866 5867 5868 5869 5869 5870 5871
5801 5803 5804 5805 5806 5809 5811 5812 5814 5814 5815 5817 5818 5819 5822 5824 5826 5827 5829 5831 5833 5835 5836 5838 5840 5841 5843 5845 5846 5848 5850 5852 5853 5855 5856 5858 5859 5860 5861 5862 5863 5864 5865 5865 5866 5867 5868 5869 5870
5796 5797 5798 5800 5801 5804 5805 5807 5807 5809 5810 5812 5813 5815 5817 5820 5821 5823 5824 5826 5828 5830 5832 5834 5836 5837 5839 5841 5843 5845 5846 5848 5850 5852 5854 5855 5857 5858 5859 5860 5861 5862 5862 5863 5864 5865 5866 5867 5868
5790 5791 5792 5794 5796 5798 5799 5800 5801 5803 5805 5806 5808 5810 5812 5814 5816 5817 5819 5821 5823 5825 5827 5829 5831 5833 5835 5837 5839 5841 5843 5845 5847 5848 5850 5852 5854 5855 5856 5857 5858 5859 5860 5861 5862 5863 5865 5866 5867
5784 5785 5787 5788 5790 5791 5793 5794 5795 5797 5799 5800 5802 5804 5807 5808 5810 5812 5814 5816 5818 5820 5822 5824 5826 5828 5830 5832 5834 5836 5838 5840 5842 5844 5846 5848 5850 5852 5853 5854 5856 5856 5858 5859 5860 5861 5862 5863 5864
5778 5778 5780 5782 5784 5785 5787 5788 5789 5790 5792 5794 5796 5798 5801 5803 5805 5806 5808 5810 5812 5814 5816 5818 5821 5823 5825 5827 5829 5832 5834 5836 5838 5840 5842 5844 5846 5848 5849 5851 5852 5853 5855 5856 5858 5859 5860 5861 5862
5770 5772 5773 5775 5777 5779 5780 5781 5782 5784 5786 5788 5790 5792 5795 5797 5799 5800 5802 5804 5806 5808 5810 5813 5815 5817 5820 5822 5824 5826 5828 5831 5833 5835 5838 5840 5842 5843 5845 5847 5848 5850 5851 5853 5854 5856 5857 5858 5859
5762 5765 5766 5769 5771 5773 5773 5774 5776 5777 5779 5781 5783 5786 5788 5790 5792 5794 5796 5798 5800 5802 5804 5806 5809 5811 5814 5816 5818 5821 5823 5825 5828 5830 5833 5835 5837 5839 5841 5843 5844 5846 5847 5849 5851 5852 5853 5854 5855
5754 5757 5761 5762 5763 5765 5766 5767 5769 5771 5773 5774 5777 5779 5781 5783 5786 5788 5790 5792 5794 5796 5798 5800 5802 5805 5808 5810 5812 5815 5817 5820 5822 5825 5827 5830 5832 5834 5836 5838 5840 5842 5843 5845 5846 5848 5849 5850 5852
5746 5750 5753 5754 5755 5756 5758 5760 5761 5763 5766 5768 5770 5772 5774 5776 5779 5781 5783 5785 5787 5789 5791 5794 5796 5799 5801 5804 5806 5809 5811 5814 5817 5819 5822 5825 5827 5829 5831 5833 5835 5837 5839 5840 5842 5843 5845 5846 5847
5738 5741 5743 5745 5746 5747 5750 5752 5754 5756 5759 5761 5762 5764 5767 5770 5772 5774 5776 5779 5781 5783 5785 5787 5790 5792 5795 5797 5800 5802 5805 5808 5810 5813 5816 5819 5822 5824 5826 5828 5830 5832 5834 5835 5837 5839 5840 5841 5842
5728 5732 5733 5735 5737 5738 5740 5743 5745 5749 5751 5752 5754 5757 5759 5762 5765 5767 5770 5772 5774 5776 5779 5781 5783 5786 5788 5791 5794 5796 5799 5802 5804 5808 5810 5813 5816 5818 5820 5822 5824 5826 5828 5830 5831 5833 5835 5836 5837
5718 5720 5723 5725 5727 5729 5731 5733 5736 5741 5742 5744 5746 5749 5752 5755 5758 5760 5763 5765 5768 5770 5772 5774 5777 5779 5782 5784 5787 5790 5792 5795 5798 5801 5804 5807 5810 5812 5815 5817 5818 5820 5822 5824 5825 5827 5829 5830 5832
5706 5709 5712 5715 5718 5720 5721 5723 5729 5732 5733 5736 5739 5741 5744 5747 5750 5753 5755 5758 5760 5763 5765 5768 5770 5773 5775 5778 5780 5783 5785 5788 5791 5794 5797 5800 5803 5806 5808 5810 5812 5814 5816 5818 5820 5821 5823 5824 5826
5694 5696 5700 5706 5708 5709 5711 5714 5721 5722 5723 5727 5730 5733 5736 5739 5742 5745 5747 5750 5753 5755 5758 5760 5763 5765 5768 5770 5773 5776 5778 5781 5784 5787 5790 5793 5796 5799 5801 5804 5806 5808 5810 5812 5813 5815 5817 5818 5819
5680 5683 5688 5694 5697 5698 5700 5705 5711 5712 5714 5717 5721 5724 5727 5730 5734 5736 5739 5742 5745 5748 5750 5753 5755 5758 5760 5763 5765 5768 5771 5774 5777 5780 5783 5786 5789 5791 5794 5796 5798 5801 5803 5805 5807 5809 5810 5811 5813
5669 5672 5676 5680 5684 5686 5688 5693 5698 5701 5704 5707 5711 5714 5718 5721 5725 5728 5730 5733 5736 5739 5742 5745 5747 5750 5752 5755 5757 5760 5764 5766 5769 5772 5775 5778 5781 5784 5786 5788 5791 5793 5795 5797 5799 5801 5803 5804 5806
5655 5658 5662 5667 5671 5673 5676 5680 5685 5689 5693 5697 5701 5704 5708 5712 5716 5718 5721 5724 5727 5730 5733 5737 5739 5742 5744 5747 5750 5753 5756 5759 5762 5764 5767 5770 5773 5776 5778 5781 5783 5785 5787 5790 5792 5793 5795 5796 5798
5641 5644 5649 5653 5657 5659 5663 5668 5673 5677 5682 5686 5690 5694 5698 5702 5705 5709 5712 5715 5719 5722 5725 5728 5731 5733 5736 5739 5742 5745 5747 5750 5753 5757 5760 5762 5765 5767 5770 5772 5774 5777 5779 5781 5783 5785 5787 5788 5790
5628 5632 5636 5640 5643 5645 5649 5654 5660 5665 5670 5674 5679 5683 5687 5692 5696 5699 5703 5706 5710 5713 5716 5719 5722 5725 5728 5731 5733 5736 5739 5742 5746 5749 5752 5754 5756 5759 5761 5763 5765 5767 5770 5772 5774 5776 5778 5779 5781
5614 5620 5623 5625 5628 5632 5636 5639 5649 5653 5658 5663 5668 5672 5677 5681 5685 5689 5693 5696 5700 5704 5706 5710 5713 5716 5719 5722 5725 5728 5731 5735 5738 5740 5742 5745 5747 5749 5751 5754 5756 5758 5761 5763 5765 5767 5769 5770 5772
5602 5607 5609 5612 5614 5618 5623 5625 5634 5640 5645 5651 5656 5661 5665 5670 5674 5678 5682 5686 5689 5693 5697 5700 5703 5707 5710 5713 5716 5719 5722 5725 5728 5730 5733 5735 5738 5740 5742 5744 5746 5749 5751 5753 5755 5757 5759 5761 5762
5589 5593 5596 5598 5600 5603 5611 5614 5620 5628 5634 5639 5644 5648 5653 5657 5662 5666 5670 5674 5679 5682 5686 5690 5694 5697 5701 5704 5707 5710 5712 5715 5718 5721 5724 5726 5728 5730 5733 5735 5737 5739 5741 5743 5745 5747 5749 5751 5752
5576 5580 5582 5584 5586 5591 5599 5601 5608 5616 5621 5626 5631 5635 5640 5644 5649 5654 5659 5663 5668 5672 5676 5680 5684 5687 5691 5694 5697 5700 5703 5705 5708 5711 5713 5716 5718 5721 5723 5725 5728 5730 5732 5734 5736 5737 5739 5741 5742
5564 5568 5571 5573 5576 5581 5586 5589 5598 5603 5608 5613 5618 5622 5627 5632 5637 5642 5647 5652 5657 5661 5665 5669 5673 5677 5681 5684 5687 5690 5693 5695 5698 5701 5703 5706 5709 5711 5714 5716 5718 5720 5722 5724 5726 5728 5729 5730 5732
5552 5555 5559 5562 5565 5569 5573 5579 5585 5589 5594 5600 5605 5610 5615 5620 5625 5630 5635 5640 5645 5649 5654 5658 5663 5667 5670 5673 5677 5680 5682 5685 5688 5690 5693 5696 5698 5701 5704 5706 5708 5710 5712 5714 5716 5717 5719 5720 5721
5543 5545 5549 5552 5554 5558 5563 5568 5573 5578 5583 5588 5593 5598 5603 5608 5613 5618 5623 5628 5633 5638 5642 5646 5651 5655 5659 5662 5666 5669 5672 5675 5678 5680 5683 5685 5688 5691 5693 5696 5698 5700 5701 5703 5705 5707 5708 5709 5711
5534 5536 5538 5542 5546 5550 5553 5559 5562 5567 5572 5577 5581 5586 5591 5596 5601 5606 5611 5616 5621 5626 5631 5635 5639 5643 5647 5651 5655 5658 5662 5665 5667 5670 5673 5675 5677 5680 5683 5685 5687 5689 5691 5692 5694 5696 5697 5698 5700
5525 5527 5530 5534 5536 5540 5544 5551 5553 5557 5561 5566 5570 5574 5579 5584 5590 5595 5600 5605 5609 5614 5619 5623 5628 5632 5636 5640 5644 5647 5651 5654 5657 5660 5662 5665 5667 5670 5672 5674 5676 5678 5680 5681 5683 5685 5686 5687 5689